Location: Étouvelles
(49.5207°N, 3.5808°E)
Time: 16:02:23
(UTC+00:00)

ATLAS CENTAUR R/B - Pass Details

Date: 03 February 2023
Orbit: 450 x 653 km, 64.7° (Epoch: 19 March)

Event Time Altitude Azimuth Distance (km) Brightness Sun altitude
Rises 17:14:56 0° 224° (SW) 2,978 6.4 -5.5°
Reaches altitude 10° 17:17:17 10° 227° (SW) 2,059 5.5 -5.8°
Maximum altitude 17:21:58 72° 311° (NW) 676 1.9 -6.5°
Drops below altitude 10° 17:26:30 10° 37° (NE) 1,987 3.7 -7.2°
Enters shadow 17:27:42 - 39° (NE) 2,457 4.1 -7.4°
